Time,TemperatureF,DewpointF,PressureIn,WindDirection,WindDirectionDegrees,WindSpeedMPH,WindSpeedGustMPH,Humidity,HourlyPrecipIn,Conditions,Clouds,dailyrainin,SoftwareType,DateUTC
2013-01-27 00:00:00,31.0,-99.9,-100.00,North,-999,-999.0,-999.0,-999,0.00,,,0.08,,2013-01-27 08:00:00,
2013-01-27 00:32:00,31.0,-99.9,-100.00,North,-999,-999.0,-999.0,-999,0.00,,,0.08,,2013-01-27 08:32:00,
2013-01-27 00:42:00,31.0,-99.9,-100.00,North,-999,-999.0,-999.0,-999,0.00,,,0.08,,2013-01-27 08:42:00,
2013-01-27 00:52:00,31.0,-99.9,-100.00,North,-999,-999.0,-999.0,-999,0.00,,,0.08,,2013-01-27 08:52:00,
2013-01-27 01:00:00,31.0,-99.9,-100.00,North,-999,-999.0,-999.0,-999,0.00,,,0.08,,2013-01-27 09:00:00,
2013-01-27 01:32:00,31.0,-99.9,-100.00,North,-999,-999.0,-999.0,-999,0.00,,,0.08,,2013-01-27 09:32:00,
2013-01-27 01:42:00,31.0,-99.9,-100.00,North,-999,-999.0,-999.0,-999,0.00,,,0.08,,2013-01-27 09:42:00,
2013-01-27 01:52:00,31.0,-99.9,-100.00,North,-999,-999.0,-999.0,-999,0.00,,,0.08,,2013-01-27 09:52:00,
2013-01-27 02:00:00,30.0,-99.9,-100.00,North,-999,-999.0,-999.0,-999,0.00,,,0.08,,2013-01-27 10:00:00,
2013-01-27 02:32:00,30.0,-99.9,-100.00,North,-999,-999.0,-999.0,-999,0.00,,,0.08,,2013-01-27 10:32:00,
2013-01-27 02:42:00,30.0,-99.9,-100.00,North,-999,-999.0,-999.0,-999,0.00,,,0.08,,2013-01-27 10:42:00,
2013-01-27 02:52:00,30.0,-99.9,-100.00,North,-999,-999.0,-999.0,-999,0.00,,,0.08,,2013-01-27 10:52:00,
2013-01-27 03:00:00,30.0,-99.9,-100.00,North,-999,-999.0,-999.0,-999,0.00,,,0.08,,2013-01-27 11:00:00,
2013-01-27 03:32:00,30.0,-99.9,-100.00,North,-999,-999.0,-999.0,-999,0.00,,,0.08,,2013-01-27 11:32:00,
2013-01-27 03:42:00,30.0,-99.9,-100.00,North,-999,-999.0,-999.0,-999,0.00,,,0.08,,2013-01-27 11:42:00,
2013-01-27 03:52:00,30.0,-99.9,-100.00,North,-999,-999.0,-999.0,-999,0.00,,,0.08,,2013-01-27 11:52:00,
2013-01-27 04:00:00,29.0,-99.9,-100.00,North,-999,-999.0,-999.0,-999,0.00,,,0.08,,2013-01-27 12:00:00,
2013-01-27 04:33:00,29.0,-99.9,-100.00,North,-999,-999.0,-999.0,-999,0.00,,,0.08,,2013-01-27 12:33:00,
2013-01-27 04:42:00,29.0,-99.9,-100.00,North,-999,-999.0,-999.0,-999,0.00,,,0.08,,2013-01-27 12:42:00,
2013-01-27 04:53:00,29.0,-99.9,-100.00,North,-999,-999.0,-999.0,-999,0.00,,,0.08,,2013-01-27 12:53:00,
2013-01-27 05:00:00,31.0,-99.9,-100.00,North,-999,-999.0,-999.0,-999,0.00,,,0.08,,2013-01-27 13:00:00,
2013-01-27 05:32:00,31.0,-99.9,-100.00,North,-999,-999.0,-999.0,-999,0.00,,,0.08,,2013-01-27 13:32:00,
2013-01-27 05:42:00,31.0,-99.9,-100.00,North,-999,-999.0,-999.0,-999,0.00,,,0.08,,2013-01-27 13:42:00,
2013-01-27 05:52:00,31.0,-99.9,-100.00,North,-999,-999.0,-999.0,-999,0.00,,,0.08,,2013-01-27 13:52:00,
2013-01-27 06:00:00,30.0,-99.9,-100.00,North,-999,-999.0,-999.0,-999,0.00,,,0.08,,2013-01-27 14:00:00,
2013-01-27 06:33:00,30.0,-99.9,-100.00,North,-999,-999.0,-999.0,-999,0.00,,,0.08,,2013-01-27 14:33:00,
2013-01-27 06:43:00,30.0,-99.9,-100.00,North,-999,-999.0,-999.0,-999,0.00,,,0.08,,2013-01-27 14:43:00,
2013-01-27 06:53:00,30.0,-99.9,-100.00,North,-999,-999.0,-999.0,-999,0.00,,,0.08,,2013-01-27 14:53:00,
2013-01-27 07:00:00,31.0,-99.9,-100.00,North,-999,-999.0,-999.0,-999,0.01,,,0.08,,2013-01-27 15:00:00,
2013-01-27 07:33:00,31.0,-99.9,-100.00,North,-999,-999.0,-999.0,-999,0.01,,,0.08,,2013-01-27 15:33:00,
2013-01-27 07:43:00,31.0,-99.9,-100.00,North,-999,-999.0,-999.0,-999,0.01,,,0.08,,2013-01-27 15:43:00,
2013-01-27 07:53:00,31.0,-99.9,-100.00,North,-999,-999.0,-999.0,-999,0.01,,,0.08,,2013-01-27 15:53:00,
2013-01-27 08:00:00,31.0,-99.9,-100.00,North,-999,-999.0,-999.0,-999,0.00,,,0.08,,2013-01-27 16:00:00,
2013-01-27 08:33:00,31.0,-99.9,-100.00,North,-999,-999.0,-999.0,-999,0.00,,,0.08,,2013-01-27 16:33:00,
2013-01-27 08:42:00,31.0,-99.9,-100.00,North,-999,-999.0,-999.0,-999,0.00,,,0.08,,2013-01-27 16:42:00,
2013-01-27 08:53:00,31.0,-99.9,-100.00,North,-999,-999.0,-999.0,-999,0.00,,,0.08,,2013-01-27 16:53:00,
2013-01-27 09:00:00,32.0,-99.9,-100.00,North,-999,-999.0,-999.0,-999,0.00,,,0.08,,2013-01-27 17:00:00,
2013-01-27 09:33:00,32.0,-99.9,-100.00,North,-999,-999.0,-999.0,-999,0.00,,,0.08,,2013-01-27 17:33:00,
2013-01-27 09:42:00,32.0,-99.9,-100.00,North,-999,-999.0,-999.0,-999,0.00,,,0.08,,2013-01-27 17:42:00,
2013-01-27 09:53:00,32.0,-99.9,-100.00,North,-999,-999.0,-999.0,-999,0.00,,,0.08,,2013-01-27 17:53:00,
2013-01-27 10:00:00,34.0,-99.9,-100.00,North,-999,-999.0,-999.0,-999,0.00,,,0.05,,2013-01-27 18:00:00,
2013-01-27 10:33:00,34.0,-99.9,-100.00,North,-999,-999.0,-999.0,-999,0.00,,,0.05,,2013-01-27 18:33:00,
2013-01-27 10:42:00,34.0,-99.9,-100.00,North,-999,-999.0,-999.0,-999,0.00,,,0.05,,2013-01-27 18:42:00,
2013-01-27 10:53:00,34.0,-99.9,-100.00,North,-999,-999.0,-999.0,-999,0.00,,,0.05,,2013-01-27 18:53:00,
2013-01-27 11:00:00,36.0,-99.9,-100.00,North,-999,-999.0,-999.0,-999,0.00,,,0.05,,2013-01-27 19:00:00,
2013-01-27 11:33:00,36.0,-99.9,-100.00,North,-999,-999.0,-999.0,-999,0.00,,,0.05,,2013-01-27 19:33:00,
2013-01-27 11:42:00,36.0,-99.9,-100.00,North,-999,-999.0,-999.0,-999,0.00,,,0.05,,2013-01-27 19:42:00,
2013-01-27 11:52:00,36.0,-99.9,-100.00,North,-999,-999.0,-999.0,-999,0.00,,,0.05,,2013-01-27 19:52:00,
2013-01-27 12:00:00,38.0,-99.9,-100.00,North,-999,-999.0,-999.0,-999,0.00,,,0.05,,2013-01-27 20:00:00,
2013-01-27 12:33:00,38.0,-99.9,-100.00,North,-999,-999.0,-999.0,-999,0.00,,,0.05,,2013-01-27 20:33:00,
2013-01-27 12:43:00,38.0,-99.9,-100.00,North,-999,-999.0,-999.0,-999,0.00,,,0.05,,2013-01-27 20:43:00,
2013-01-27 12:53:00,38.0,-99.9,-100.00,North,-999,-999.0,-999.0,-999,0.00,,,0.05,,2013-01-27 20:53:00,
2013-01-27 13:00:00,39.0,-99.9,-100.00,North,-999,-999.0,-999.0,-999,0.00,,,0.05,,2013-01-27 21:00:00,
2013-01-27 13:33:00,39.0,-99.9,-100.00,North,-999,-999.0,-999.0,-999,0.00,,,0.05,,2013-01-27 21:33:00,
2013-01-27 13:43:00,39.0,-99.9,-100.00,North,-999,-999.0,-999.0,-999,0.00,,,0.05,,2013-01-27 21:43:00,
2013-01-27 13:53:00,39.0,-99.9,-100.00,North,-999,-999.0,-999.0,-999,0.00,,,0.05,,2013-01-27 21:53:00,
2013-01-27 17:00:00,32.0,-99.9,-100.00,North,-999,-999.0,-999.0,-999,0.01,,,0.03,,2013-01-28 01:00:00,
2013-01-27 17:33:00,32.0,-99.9,-100.00,North,-999,-999.0,-999.0,-999,0.01,,,0.03,,2013-01-28 01:33:00,
2013-01-27 17:43:00,32.0,-99.9,-100.00,North,-999,-999.0,-999.0,-999,0.01,,,0.03,,2013-01-28 01:43:00,
2013-01-27 17:52:00,32.0,-99.9,-100.00,North,-999,-999.0,-999.0,-999,0.01,,,0.03,,2013-01-28 01:52:00,
2013-01-27 18:00:00,31.0,-99.9,-100.00,North,-999,-999.0,-999.0,-999,0.01,,,0.04,,2013-01-28 02:00:00,
2013-01-27 18:32:00,31.0,-99.9,-100.00,North,-999,-999.0,-999.0,-999,0.01,,,0.04,,2013-01-28 02:32:00,
2013-01-27 18:42:00,31.0,-99.9,-100.00,North,-999,-999.0,-999.0,-999,0.01,,,0.04,,2013-01-28 02:42:00,
2013-01-27 18:53:00,31.0,-99.9,-100.00,North,-999,-999.0,-999.0,-999,0.01,,,0.04,,2013-01-28 02:53:00,
2013-01-27 19:00:00,29.0,-99.9,-100.00,North,-999,-999.0,-999.0,-999,0.02,,,0.06,,2013-01-28 03:00:00,
2013-01-27 19:32:00,29.0,-99.9,-100.00,North,-999,-999.0,-999.0,-999,0.02,,,0.06,,2013-01-28 03:32:00,
2013-01-27 19:42:00,29.0,-99.9,-100.00,North,-999,-999.0,-999.0,-999,0.02,,,0.06,,2013-01-28 03:42:00,
2013-01-27 19:53:00,29.0,-99.9,-100.00,North,-999,-999.0,-999.0,-999,0.02,,,0.06,,2013-01-28 03:53:00,
2013-01-27 20:00:00,29.0,-99.9,-100.00,North,-999,-999.0,-999.0,-999,0.02,,,0.08,,2013-01-28 04:00:00,
2013-01-27 20:42:00,29.0,-99.9,-100.00,North,-999,-999.0,-999.0,-999,0.02,,,0.08,,2013-01-28 04:42:00,
2013-01-27 20:52:00,29.0,-99.9,-100.00,North,-999,-999.0,-999.0,-999,0.02,,,0.08,,2013-01-28 04:52:00,
2013-01-27 21:00:00,28.0,-99.9,-100.00,North,-999,-999.0,-999.0,-999,0.02,,,0.10,,2013-01-28 05:00:00,
2013-01-27 21:32:00,28.0,-99.9,-100.00,North,-999,-999.0,-999.0,-999,0.02,,,0.10,,2013-01-28 05:32:00,
2013-01-27 21:42:00,28.0,-99.9,-100.00,North,-999,-999.0,-999.0,-999,0.02,,,0.10,,2013-01-28 05:42:00,
2013-01-27 21:53:00,28.0,-99.9,-100.00,North,-999,-999.0,-999.0,-999,0.02,,,0.10,,2013-01-28 05:53:00,
2013-01-27 22:00:00,29.0,-99.9,-100.00,North,-999,-999.0,-999.0,-999,0.00,,,0.10,,2013-01-28 06:00:00,
2013-01-27 22:33:00,29.0,-99.9,-100.00,North,-999,-999.0,-999.0,-999,0.00,,,0.10,,2013-01-28 06:33:00,
2013-01-27 22:42:00,29.0,-99.9,-100.00,North,-999,-999.0,-999.0,-999,0.00,,,0.10,,2013-01-28 06:42:00,
2013-01-27 22:52:00,29.0,-99.9,-100.00,North,-999,-999.0,-999.0,-999,0.00,,,0.10,,2013-01-28 06:52:00,
2013-01-27 23:00:00,28.0,-99.9,-100.00,North,-999,-999.0,-999.0,-999,0.00,,,0.10,,2013-01-28 07:00:00,
2013-01-27 23:32:00,28.0,-99.9,-100.00,North,-999,-999.0,-999.0,-999,0.00,,,0.10,,2013-01-28 07:32:00,
2013-01-27 23:42:00,28.0,-99.9,-100.00,North,-999,-999.0,-999.0,-999,0.00,,,0.10,,2013-01-28 07:42:00,
2013-01-27 23:52:00,28.0,-99.9,-100.00,North,-999,-999.0,-999.0,-999,0.00,,,0.10,,2013-01-28 07:52:00,